GW2521 Weather Reports


time (UTC)temp
C
wind
direction
speed
KPH
gust
KPH
rain 1hr
cm
rain 24hr
cm
rain mn
cm
humidity
%
barometer
mb
20260903010700 28 171 4.8 8.0 0.00 0.00 0.00 77 1015.3
20260903010159 28 182 3.2 3.2 0.00 0.00 0.00 77 1015.2
20260903005659 28 193 3.2 3.2 0.00 0.00 0.00 78 1015.1
20260903005154 28 191 4.8 4.8 0.00 0.00 0.00 77 1015.0
20260903004649 28 207 4.8 4.8 0.00 0.00 0.00 77 1015.0
20260903004144 28 168 4.8 4.8 0.00 0.00 0.00 77 1015.1
20260903003640 28 207 4.8 8.0 0.00 0.00 0.00 77 1015.2
20260903003134 28 190 4.8 4.8 0.00 0.00 0.00 76 1014.8
20260903002630 29 197 4.8 4.8 0.00 0.00 0.00 76 1015.1
20260903002124 29 181 3.2 3.2 0.00 0.00 0.00 75 1015.0
20260903001619 30 194 4.8 4.8 0.00 0.00 0.00 74 1015.2
20260903001118 30 168 3.2 3.2 0.00 0.00 0.00 73 1015.0
20260903000615 30 181 3.2 3.2 0.00 0.00 0.00 73 1015.2
20260903000114 30 195 1.6 3.2 0.00 0.00 0.00 73 1015.1
20260902235612 30 193 3.2 3.2 0.00 0.00 0.00 73 1015.2
20260902235108 30 166 1.6 1.6 0.00 0.00 0.00 72 1015.2
20260902234602 30 166 1.6 1.6 0.00 0.00 0.00 72 1015.4
20260902234100 30 195 3.2 3.2 0.00 0.00 0.00 72 1015.0
20260902233555 31 194 4.8 4.8 0.00 0.00 0.00 71 1015.3
20260902233050 31 233 4.8 4.8 0.00 0.00 0.00 71 1015.3
20260902232550 31 181 4.8 4.8 0.00 0.00 0.00 70 1015.1
20260902232044 31 207 1.6 3.2 0.00 0.00 0.00 70 1015.2
20260902231538 31 209 3.2 3.2 0.00 0.00 0.00 69 1015.3
20260902231032 31 200 4.8 4.8 0.00 0.00 0.00 69 1015.1
20260902230527 32 199 4.8 8.0 0.00 0.00 0.00 68 1015.2
20260902230026 32 220 3.2 3.2 0.00 0.00 0.00 68 1014.9
20260902225522 32 188 4.8 4.8 0.00 0.00 0.00 66 1015.2
20260902225021 32 221 6.4 8.0 0.00 0.00 0.00 65 1015.2
20260902224520 32 212 3.2 4.8 0.00 0.00 0.00 64 1015.1
20260902224016 32 183 4.8 4.8 0.00 0.00 0.00 64 1015.1
20260902223512 33 218 4.8 8.0 0.00 0.00 0.00 63 1015.0
20260902223011 32 156 4.8 8.0 0.00 0.00 0.00 65 1015.1
20260902222510 33 205 8.0 8.0 0.00 0.00 0.00 62 1015.2
20260902222009 33 193 3.2 4.8 0.00 0.00 0.00 62 1015.1
20260902221509 33 211 3.2 3.2 0.00 0.00 0.00 63 1015.3
20260902221000 33 239 6.4 8.0 0.00 0.00 0.00 60 1015.2
20260902220500 33 246 4.8 4.8 0.00 0.00 0.00 60 1015.2
20260902215954 33 188 3.2 3.2 0.00 0.00 0.00 64 1015.2
20260902215450 33 202 6.4 8.0 0.00 0.00 0.00 63 1014.9
20260902214946 33 179 8.0 11.3 0.00 0.00 0.00 61 1015.4
20260902214444 33 192 4.8 4.8 0.00 0.00 0.00 60 1015.2
20260902213938 33 213 4.8 4.8 0.00 0.00 0.00 60 1015.1
20260902213435 33 228 4.8 8.0 0.00 0.00 0.00 60 1015.2
20260902212933 33 190 8.0 9.7 0.00 0.00 0.00 60 1015.2
20260902212430 33 68 1.6 1.6 0.00 0.00 0.00 59 1015.3
20260902211925 33 274 4.8 4.8 0.00 0.00 0.00 58 1015.3
20260902211416 34 329 3.2 3.2 0.00 0.00 0.00 57 1015.5
20260902210911 33 205 6.4 9.7 0.00 0.00 0.00 57 1015.2
20260902210410 33 295 6.4 8.0 0.00 0.00 0.00 59 1015.2
20260902205908 33 199 9.7 11.3 0.00 0.00 0.00 61 1015.2
20260902205357 33 228 8.0 9.7 0.00 0.00 0.00 57 1015.2
20260902204853 33 230 8.0 11.3 0.00 0.00 0.00 59 1015.4
20260902204347 33 228 4.8 4.8 0.00 0.00 0.00 59 1015.3
20260902203843 33 190 8.0 11.3 0.00 0.00 0.00 58 1015.3
20260902203338 33 304 4.8 4.8 0.00 0.00 0.00 58 1015.5
20260902202838 33 254 9.7 11.3 0.00 0.00 0.00 58 1015.3
20260902202328 33 181 9.7 11.3 0.00 0.00 0.00 58 1015.2
20260902201824 33 198 12.9 14.5 0.00 0.00 0.00 56 1015.4
20260902201319 33 225 4.8 8.0 0.00 0.00 0.00 58 1015.6
20260902200814 33 208 9.7 12.9 0.00 0.00 0.00 59 1015.6
20260902200308 33 202 8.0 9.7 0.00 0.00 0.00 60 1015.6
20260902195804 33 203 8.0 11.3 0.00 0.00 0.00 59 1015.5
20260902195306 33 206 8.0 11.3 0.00 0.00 0.00 58 1015.8
20260902194758 33 173 8.0 12.9 0.00 0.00 0.00 61 1015.8
20260902194253 33 214 8.0 9.7 0.00 0.00 0.00 59 1015.9
20260902193749 33 191 8.0 12.9 0.00 0.00 0.00 61 1016.0
20260902193244 33 219 12.9 16.1 0.00 0.00 0.00 57 1015.8
20260902192743 33 183 6.4 9.7 0.00 0.00 0.00 59 1016.1
20260902192242 33 192 4.8 8.0 0.00 0.00 0.00 62 1016.0
20260902191742 33 225 11.3 12.9 0.00 0.00 0.00 59 1016.1
20260902191237 33 196 9.7 12.9 0.00 0.00 0.00 60 1016.5
20260902190732 33 197 14.5 16.1 0.00 0.00 0.00 57 1016.2
20260902190232 33 197 12.9 16.1 0.00 0.00 0.00 59 1016.3
20260902185728 33 195 9.7 11.3 0.00 0.00 0.00 61 1016.4
20260902185223 33 192 9.7 11.3 0.00 0.00 0.00 60 1016.2
20260902184719 33 261 4.8 4.8 0.00 0.00 0.00 61 1016.3
20260902184215 33 210 12.9 14.5 0.00 0.00 0.00 60 1016.2
20260902183710 33 193 6.4 9.7 0.00 0.00 0.00 59 1016.3
20260902183206 33 237 9.7 11.3 0.00 0.00 0.00 57 1016.3
20260902182702 33 209 9.7 9.7 0.00 0.00 0.00 62 1016.3
20260902182158 32 181 11.3 12.9 0.00 0.00 0.00 61 1016.7
20260902181654 32 227 11.3 16.1 0.00 0.00 0.00 61 1016.5
20260902181153 33 187 8.0 12.9 0.00 0.00 0.00 61 1016.6
20260902180648 32 227 6.4 8.0 0.00 0.00 0.00 59 1016.6
20260902180143 32 158 8.0 9.7 0.00 0.00 0.00 62 1016.6
20260902175638 32 188 6.4 9.7 0.00 0.00 0.00 63 1016.6
20260902175134 32 251 6.4 8.0 0.00 0.00 0.00 60 1016.6
20260902174630 32 188 8.0 12.9 0.00 0.00 0.00 62 1016.9
20260902174125 32 233 6.4 8.0 0.00 0.00 0.00 67 1017.1
20260902173620 32 115 3.2 3.2 0.00 0.00 0.00 67 1016.9
20260902173116 32 232 6.4 8.0 0.00 0.00 0.00 68 1017.1
20260902172615 32 195 1.6 3.2 0.00 0.00 0.00 65 1017.3
20260902172109 32 177 4.8 8.0 0.00 0.00 0.00 65 1016.9
20260902171605 32 208 3.2 3.2 0.00 0.00 0.00 65 1017.2
20260902171101 31 218 8.0 9.7 0.00 0.00 0.00 64 1017.4
20260902170556 32 190 9.7 11.3 0.00 0.00 0.00 66 1016.9
20260902170052 31 202 9.7 9.7 0.00 0.00 0.00 67 1017.4
20260902165551 32 226 8.0 9.7 0.00 0.00 0.00 67 1017.3
20260902165046 31 188 8.0 9.7 0.00 0.00 0.00 69 1017.5
20260902164541 31 220 8.0 12.9 0.00 0.00 0.00 68 1017.5
20260902164040 31 183 6.4 8.0 0.00 0.00 0.00 71 1017.3
20260902163536 31 193 4.8 8.0 0.00 0.00 0.00 70 1017.6
20260902163033 31 193 8.0 9.7 0.00 0.00 0.00 68 1017.7
20260902162528 31 195 6.4 9.7 0.00 0.00 0.00 67 1017.5
20260902162023 31 206 4.8 4.8 0.00 0.00 0.00 68 1017.7
20260902161518 31 111 3.2 4.8 0.00 0.00 0.00 65 1017.2
20260902161014 31 181 4.8 8.0 0.00 0.00 0.00 64 1017.6
20260902160510 31 173 4.8 4.8 0.00 0.00 0.00 67 1017.7
20260902160010 31 207 6.4 8.0 0.00 0.00 0.00 68 1017.7
20260902155503 31 194 1.6 1.6 0.00 0.00 0.00 66 1017.8
20260902155002 31 218 6.4 9.7 0.00 0.00 0.00 64 1017.8
20260902154457 31 309 4.8 4.8 0.00 0.00 0.00 67 1017.7
20260902153952 30 297 3.2 4.8 0.00 0.00 0.00 69 1017.7
20260902153450 30 254 8.0 9.7 0.00 0.00 0.00 67 1017.6
20260902152946 30 166 4.8 4.8 0.00 0.00 0.00 70 1017.8
20260902152441 30 354 1.6 1.6 0.00 0.00 0.00 68 1017.9
20260902151936 30 187 1.6 1.6 0.00 0.00 0.00 67 1017.6
20260902151433 30 124 3.2 3.2 0.00 0.00 0.00 68 1017.3
20260902150926 30 167 4.8 4.8 0.00 0.00 0.00 68 1017.8
20260902150422 30 106 0.0 1.6 0.00 0.00 0.00 68 1017.7
20260902145922 30 172 3.2 4.8 0.00 0.00 0.00 68 1017.6
20260902145418 30 228 1.6 3.2 0.00 0.00 0.00 68 1017.6
20260902144912 30 220 3.2 8.0 0.00 0.00 0.00 69 1017.6
20260902144408 30 155 3.2 3.2 0.00 0.00 0.00 71 1017.7
20260902143903 29 82 3.2 3.2 0.00 0.00 0.00 71 1017.3
20260902143358 29 202 4.8 4.8 0.00 0.00 0.00 72 1017.5
20260902142854 28 215 6.4 9.7 0.00 0.00 0.00 71 1017.4
20260902142349 28 187 6.4 8.0 0.00 0.00 0.00 71 1017.4
20260902141844 28 211 4.8 4.8 0.00 0.00 0.00 72 1017.4
20260902141339 28 238 3.2 8.0 0.00 0.00 0.00 71 1017.3
20260902140833 28 102 1.6 1.6 0.00 0.00 0.00 74 1017.5
20260902140329 28 170 4.8 4.8 0.00 0.00 0.00 73 1017.5
20260902135828 28 134 3.2 3.2 0.00 0.00 0.00 75 1017.5
20260902135324 28 171 3.2 3.2 0.00 0.00 0.00 75 1017.6
20260902134823 27 211 3.2 3.2 0.00 0.00 0.00 73 1017.7
20260902134318 27 205 1.6 3.2 0.00 0.00 0.00 75 1017.8
20260902133813 27 283 3.2 4.8 0.00 0.00 0.00 76 1017.7
20260902133308 27 199 4.8 4.8 0.00 0.00 0.00 77 1017.6
20260902132803 27 302 3.2 3.2 0.00 0.00 0.00 77 1017.7
20260902132258 26 189 4.8 4.8 0.00 0.00 0.00 78 1017.7
20260902131754 26 273 3.2 4.8 0.00 0.00 0.00 79 1017.8
20260902131250 26 207 1.6 1.6 0.00 0.00 0.00 79 1017.7
20260902130750 26 190 4.8 4.8 0.00 0.00 0.00 81 1017.8
20260902130246 26 132 3.2 3.2 0.00 0.00 0.00 81 1017.5
20260902125740 25 181 4.8 4.8 0.00 0.00 0.00 81 1017.7
20260902125236 25 220 4.8 4.8 0.00 0.00 0.00 81 1017.9
20260902124733 25 170 1.6 1.6 0.00 0.00 0.00 83 1017.9
20260902124228 25 187 1.6 1.6 0.00 0.00 0.00 83 1017.8
20260902123723 24 187 4.8 4.8 0.00 0.00 0.00 85 1017.8
20260902123219 24 203 4.8 4.8 0.00 0.00 0.00 86 1017.8
20260902122718 24 201 3.2 3.2 0.00 0.00 0.00 86 1017.9
20260902122213 23 179 3.2 3.2 0.00 0.00 0.00 86 1017.9
20260902121708 23 184 4.8 4.8 0.00 0.00 0.00 87 1017.8
20260902121203 23 186 1.6 1.6 0.00 0.00 0.00 88 1017.6
20260902120659 23 175 3.2 4.8 0.00 0.00 0.00 88 1017.8
20260902120155 23 188 4.8 4.8 0.00 0.00 0.00 89 1017.6
20260902115654 23 187 3.2 3.2 0.00 0.00 0.00 89 1017.8
20260902115151 23 164 1.6 1.6 0.00 0.00 0.00 90 1017.7
20260902114647 22 181 3.2 3.2 0.00 0.00 0.00 90 1017.6
20260902114142 22 128 1.6 1.6 0.00 0.00 0.00 91 1017.5
20260902113637 22 129 0.0 0.0 0.00 0.00 0.00 92 1017.5
20260902113132 22 117 0.0 0.0 0.00 0.00 0.00 92 1017.6
20260902112626 22 117 0.0 0.0 0.00 0.00 0.00 92 1017.6
20260902112124 22 112 0.0 0.0 0.00 0.00 0.00 92 1017.7
20260902111619 22 103 0.0 0.0 0.00 0.00 0.00 92 1017.6
20260902111115 22 103 0.0 0.0 0.00 0.00 0.00 91 1017.4
20260902110605 22 102 0.0 0.0 0.00 0.00 0.00 91 1017.6
20260902110101 22 112 0.0 0.0 0.00 0.00 0.00 91 1017.3
20260902105555 22 104 0.0 0.0 0.00 0.00 0.00 91 1017.2
20260902105054 22 147 0.0 0.0 0.00 0.00 0.00 91 1017.2
20260902104550 22 107 1.6 1.6 0.00 0.00 0.00 91 1017.5
20260902104045 22 178 1.6 1.6 0.00 0.00 0.00 91 1017.1
20260902103540 22 112 0.0 1.6 0.00 0.00 0.00 91 1017.3
20260902103036 22 141 1.6 1.6 0.00 0.00 0.00 92 1017.3
20260902102532 22 147 1.6 1.6 0.00 0.00 0.00 91 1017.4
20260902102029 22 129 0.0 0.0 0.00 0.00 0.00 91 1017.2
20260902101524 22 96 0.0 0.0 0.00 0.00 0.00 92 1017.1
20260902101023 22 95 0.0 0.0 0.00 0.00 0.00 92 1016.9
20260902100518 22 104 0.0 0.0 0.00 0.00 0.00 92 1017.1
20260902100018 22 93 0.0 0.0 0.00 0.00 0.00 92 1016.9
20260902095517 22 99 0.0 0.0 0.00 0.00 0.00 91 1016.8
20260902095016 23 102 0.0 0.0 0.00 0.00 0.00 91 1016.8
20260902094512 23 115 0.0 0.0 0.00 0.00 0.00 91 1016.8
20260902094008 23 105 0.0 0.0 0.00 0.00 0.00 91 1016.9
20260902093502 23 113 0.0 1.6 0.00 0.00 0.00 91 1016.6
20260902093001 23 111 0.0 0.0 0.00 0.00 0.00 92 1016.8
20260902092457 23 112 0.0 0.0 0.00 0.00 0.00 91 1016.8
20260902091957 23 128 0.0 0.0 0.00 0.00 0.00 91 1016.8
20260902091452 23 114 0.0 0.0 0.00 0.00 0.00 91 1016.5
20260902090948 23 101 0.0 0.0 0.00 0.00 0.00 91 1016.7
20260902090444 23 114 0.0 1.6 0.00 0.00 0.00 91 1016.5
20260902085942 23 95 0.0 0.0 0.00 0.00 0.00 91 1016.6
20260902085438 23 109 0.0 0.0 0.00 0.00 0.00 90 1016.6
20260902084933 23 128 0.0 0.0 0.00 0.00 0.00 90 1016.7
20260902084429 23 170 1.6 1.6 0.00 0.00 0.00 90 1016.7
20260902083924 23 108 0.0 0.0 0.00 0.00 0.00 90 1016.8
20260902083419 24 124 0.0 0.0 0.00 0.00 0.00 89 1016.7
20260902082919 24 162 1.6 1.6 0.00 0.00 0.00 89 1016.8
20260902082414 24 146 1.6 1.6 0.00 0.00 0.00 88 1016.6
20260902081911 24 108 0.0 0.0 0.00 0.00 0.00 88 1016.7
20260902081407 25 145 1.6 1.6 0.00 0.00 0.00 88 1016.5
20260902080902 25 325 3.2 3.2 0.00 0.00 0.00 88 1016.6
20260902080358 24 216 6.4 8.0 0.00 0.00 0.00 88 1016.8
20260902075857 25 170 1.6 1.6 0.00 0.00 0.00 88 1016.8
20260902075354 25 142 3.2 3.2 0.00 0.00 0.00 88 1016.5
20260902074849 25 164 1.6 1.6 0.00 0.00 0.00 87 1016.5
20260902074344 25 188 1.6 3.2 0.00 0.00 0.00 88 1016.5
20260902073839 25 183 3.2 3.2 0.00 0.00 0.00 88 1016.6
20260902073336 25 108 1.6 3.2 0.00 0.00 0.00 88 1016.4
20260902072831 25 110 1.6 1.6 0.00 0.00 0.00 88 1016.5
20260902072327 25 152 0.0 0.0 0.00 0.00 0.00 88 1016.7
20260902071823 25 111 0.0 0.0 0.00 0.00 0.00 88 1016.7
20260902071317 25 196 0.0 1.6 0.00 0.00 0.00 88 1016.5
20260902070814 25 170 3.2 3.2 0.00 0.00 0.00 89 1016.5
20260902070314 25 190 1.6 3.2 0.00 0.00 0.00 89 1016.5
20260902065812 25 208 1.6 3.2 0.00 0.00 0.00 89 1016.5
20260902065307 25 113 1.6 1.6 0.00 0.00 0.00 89 1016.5
20260902064803 25 185 1.6 3.2 0.00 0.00 0.00 89 1016.4
20260902064300 25 99 0.0 0.0 0.00 0.00 0.00 89 1016.2
20260902063755 25 167 1.6 3.2 0.00 0.00 0.00 89 1016.4
20260902063249 25 209 1.6 1.6 0.00 0.00 0.00 89 1016.8
20260902062743 25 156 1.6 3.2 0.00 0.00 0.00 89 1016.7
20260902062238 24 185 3.2 3.2 0.00 0.00 0.00 91 1016.4
20260902061736 23 151 0.0 0.0 0.00 0.00 0.00 93 1016.6
20260902061232 23 111 0.0 0.0 0.00 0.00 0.00 93 1016.6
20260902060729 23 97 0.0 0.0 0.00 0.00 0.00 92 1016.6
20260902060225 23 97 0.0 0.0 0.00 0.00 0.00 91 1016.6
20260902055720 24 108 0.0 0.0 0.00 0.00 0.00 91 1016.7
20260902055216 25 89 0.0 0.0 0.00 0.00 0.00 91 1016.7
20260902054711 25 90 0.0 0.0 0.00 0.00 0.00 90 1016.7
20260902054207 25 90 0.0 0.0 0.00 0.00 0.00 89 1016.9
20260902053702 25 92 0.0 0.0 0.00 0.00 0.00 88 1016.7
20260902053202 25 85 0.0 0.0 0.00 0.00 0.00 88 1016.8
20260902052701 25 100 0.0 0.0 0.00 0.00 0.00 87 1016.4
20260902052156 26 105 0.0 0.0 0.00 0.00 0.00 87 1016.8
20260902051655 26 176 1.6 1.6 0.00 0.00 0.00 87 1016.7
20260902051150 26 223 3.2 3.2 0.00 0.00 0.00 86 1016.7
20260902050645 26 122 1.6 1.6 0.00 0.00 0.00 86 1016.5
20260902050141 26 186 1.6 3.2 0.00 0.00 0.00 86 1016.5
20260902045635 26 169 4.8 4.8 0.00 0.00 0.00 86 1017.1
20260902045131 26 159 4.8 4.8 0.00 0.00 0.00 86 1016.7
20260902044626 26 235 1.6 3.2 0.00 0.00 0.00 86 1016.5
20260902044123 26 204 3.2 3.2 0.00 0.00 0.00 87 1016.6
20260902043617 26 172 3.2 3.2 0.00 0.00 0.00 87 1016.7
20260902043112 26 198 3.2 4.8 0.00 0.00 0.00 87 1016.6
20260902042611 26 175 1.6 1.6 0.00 0.00 0.00 88 1016.7
20260902042107 25 162 0.0 0.0 0.00 0.00 0.00 88 1016.5
20260902041606 25 228 4.8 4.8 0.00 0.00 0.00 89 1016.7
20260902041101 25 92 0.0 0.0 0.00 0.00 0.00 90 1016.7
20260902040555 25 172 0.0 1.6 0.00 0.00 0.00 90 1016.6
20260902040051 25 8 0.0 1.6 0.00 0.00 0.00 90 1016.5
20260902035549 25 92 0.0 0.0 0.00 0.03 0.03 89 1016.7
20260902035045 25 82 0.0 0.0 0.00 0.03 0.03 88 1016.7
20260902034544 26 139 0.0 0.0 0.00 0.03 0.03 87 1016.5
20260902034043 26 138 0.0 0.0 0.00 0.03 0.03 87 1016.3
20260902033543 26 115 0.0 0.0 0.00 0.03 0.03 87 1016.5
20260902033037 26 105 0.0 0.0 0.00 0.03 0.03 87 1016.5
20260902032536 26 144 0.0 1.6 0.00 0.03 0.03 86 1016.5
20260902032031 26 149 1.6 3.2 0.00 0.03 0.03 86 1016.3
20260902031526 26 167 1.6 1.6 0.00 0.03 0.03 86 1016.5
20260902031022 26 183 1.6 3.2 0.00 0.03 0.03 86 1016.6
20260902030517 26 209 1.6 1.6 0.00 0.03 0.03 86 1016.5
20260902030016 26 102 0.0 1.6 0.00 0.03 0.03 87 1016.5
20260902025511 26 197 1.6 1.6 0.00 0.03 0.03 87 1016.4
20260902025006 26 107 0.0 0.0 0.00 0.03 0.03 88 1016.5
20260902024502 26 130 0.0 1.6 0.00 0.03 0.03 88 1016.3
20260902023955 26 132 0.0 1.6 0.00 0.03 0.03 89 1016.5
20260902023452 26 139 0.0 0.0 0.00 0.03 0.03 90 1016.3
20260902022951 26 179 0.0 0.0 0.00 0.03 0.03 90 1016.6
20260902022446 26 99 0.0 0.0 0.00 0.03 0.03 91 1016.5
20260902021942 25 99 0.0 0.0 0.00 0.03 0.03 92 1016.6
20260902021437 25 106 0.0 0.0 0.00 0.03 0.03 92 1016.6
20260902020932 25 119 0.0 0.0 0.00 0.03 0.03 92 1016.5
20260902020429 25 104 0.0 0.0 0.00 0.03 0.03 91 1016.5
20260902015924 25 90 0.0 0.0 0.00 0.03 0.03 90 1016.8
20260902015420 25 81 0.0 0.0 0.00 0.03 0.03 90 1016.6
20260902014915 26 83 0.0 0.0 0.00 0.03 0.03 89 1016.6
20260902014412 26 84 0.0 0.0 0.00 0.03 0.03 89 1016.7
20260902013910 26 106 0.0 0.0 0.00 0.03 0.03 90 1016.4
20260902013406 26 159 0.0 0.0 0.00 0.03 0.03 90 1016.7
20260902012902 26 158 0.0 0.0 0.00 0.03 0.03 90 1016.6
20260902012357 26 157 0.0 0.0 0.00 0.03 0.03 90 1016.3
20260902011852 26 150 0.0 0.0 0.00 0.03 0.03 90 1016.5
20260902011347 26 150 0.0 0.0 0.00 0.03 0.03 88 1016.5